Theta_e
333 337 338 343 344 347 348 347 348 354 353 353 352 351 349 350 351 353 356 356 355 355 353 353 353 353 349 345 346 337 330 330 335 328 328 333 332 331 338 334 332 335 342
331 335 337 339 342 344 348 347 350 356 353 354 353 349 350 350 351 352 356 355 356 355 354 352 350 348 346 346 339 333 331 330 334 325 324 323 329 333 335 330 330 330 339
329 333 335 338 341 343 348 349 352 356 355 356 354 351 353 354 351 353 354 356 356 357 355 356 350 349 347 343 338 336 331 326 331 329 327 322 319 328 335 331 328 329 330
331 333 336 337 340 344 350 351 353 356 354 355 351 347 346 345 347 352 353 352 356 356 355 353 348 348 346 341 335 336 332 329 323 332 334 329 326 322 320 329 327 326 326
330 333 336 338 341 346 348 353 353 357 353 354 354 349 346 348 346 344 349 353 352 354 354 354 351 347 346 340 336 332 333 333 331 331 331 329 328 326 321 318 323 331 328
329 331 336 340 340 346 350 352 352 353 355 352 353 353 350 344 342 348 347 349 345 348 353 352 350 347 340 336 336 338 333 334 332 329 329 327 325 324 324 319 318 321 325
329 329 334 337 339 342 349 352 352 351 356 355 354 355 355 349 348 349 347 345 344 342 348 348 350 347 345 341 339 334 333 335 333 334 329 331 328 328 323 320 318 319 321
330 330 331 336 340 341 347 351 352 352 355 356 354 354 355 358 353 351 351 346 346 344 346 352 351 349 344 341 340 336 337 337 333 331 329 331 330 330 328 323 320 316 318
331 332 332 335 340 341 346 349 353 353 355 357 356 355 354 355 358 353 350 351 347 347 346 352 351 348 344 343 340 337 335 336 335 333 334 330 331 330 332 329 324 320 315
328 334 334 334 341 342 344 349 356 355 357 357 358 358 358 357 356 356 353 351 351 350 347 352 351 348 345 343 340 337 339 336 337 334 333 332 332 332 330 331 329 325 320
328 332 335 336 340 343 344 346 355 356 357 358 358 358 359 360 358 356 354 353 350 350 349 351 350 347 345 343 341 337 336 338 334 336 333 333 332 330 329 331 328 326 325
330 330 335 337 337 342 344 346 355 355 358 359 360 359 359 362 360 358 355 355 351 351 350 349 349 347 345 343 342 338 338 336 335 334 332 331 334 329 330 329 328 328 328
322 328 333 336 338 341 344 345 351 356 358 359 360 360 360 359 361 359 357 356 355 352 349 348 346 346 345 344 343 340 336 337 337 336 334 332 332 331 331 332 329 329 329
325 324 333 334 337 338 342 344 347 354 358 359 360 359 360 360 361 362 358 356 357 353 348 348 346 346 346 344 343 340 338 336 336 338 337 334 333 331 331 329 329 329 327
326 324 331 333 336 336 339 343 346 347 355 356 358 358 360 361 361 361 360 356 357 356 349 346 346 346 345 344 341 341 339 337 335 337 339 338 338 339 335 331 329 328 325
328 329 328 335 336 336 337 340 343 345 347 353 355 358 358 360 360 359 359 358 355 357 352 347 346 344 346 335 337 341 340 339 337 336 336 335 340 339 337 334 333 329 323
325 329 332 333 336 340 340 339 341 344 346 346 352 355 357 358 359 359 358 358 356 358 353 348 345 342 342 331 333 337 340 339 337 337 336 337 337 333 330 330 330 329 329
324 325 336 336 338 347 343 343 343 343 345 347 349 353 355 358 359 359 358 358 358 354 351 347 344 341 341 329 326 332 338 335 336 338 336 335 334 333 330 328 325 326 327
321 326 328 338 342 345 348 345 344 346 344 346 348 353 355 357 359 358 358 358 356 353 348 344 342 340 339 327 323 326 333 333 332 336 338 338 333 330 328 328 325 324 325
320 323 326 326 340 339 351 347 345 347 345 345 350 352 356 357 359 359 358 355 353 349 345 343 342 336 340 323 321 324 333 331 331 333 335 329 331 324 323 326 323 321 322
321 320 322 324 327 340 348 350 348 346 351 352 357 358 360 361 360 358 356 355 349 346 343 341 341 341 339 332 317 317 332 331 331 333 334 334 322 318 316 319 323 323 321
335 333 326 330 333 340 348 347 349 352 353 358 360 360 360 360 356 353 351 350 347 343 340 338 335 337 339 329 316 315 321 329 335 333 333 330 319 313 313 316 319 316 315
333 337 347 353 355 352 349 349 354 358 359 359 358 358 356 355 351 347 344 342 341 339 335 335 333 334 338 338 318 313 314 319 331 331 321 315 312 310 312 315 317 314 311
345 348 350 350 352 355 358 357 358 358 357 354 352 349 349 347 346 343 342 340 339 338 336 336 334 332 333 330 323 320 317 317 318 316 313 315 316 315 316 313 312 311 311
348 349 349 351 352 355 354 355 356 355 352 350 346 343 339 330 320 315 326 334 322 328 338 337 336 333 331 329 322 320 322 322 320 317 316 313 312 311 311 312 311 313 313
343 344 347 348 350 352 352 352 351 348 345 341 340 334 331 328 324 320 312 301 302 300 302 308 319 312 313 307 306 306 307 310 311 316 318 313 314 314 314 314 314 317 318
Wind_Speed
14 15 15 16 16 15 15 14 10 13 11 7 7 4 4 3 3 5 6 7 6 6 6 4 2 3 4 4 3 2 3 3 1 3 4 4 2 3 4 3 4 5 5
18 16 16 16 18 16 16 15 13 12 12 9 6 4 4 4 3 3 6 7 7 8 6 5 4 5 4 4 4 4 1 2 2 2 2 3 5 3 2 4 4 6 5
21 18 20 17 16 18 17 17 15 13 13 11 7 3 2 2 2 3 4 8 8 5 6 6 5 5 4 4 4 4 3 2 3 1 4 3 0 2 2 2 3 6 3
21 21 22 18 20 17 18 18 15 14 11 11 10 8 6 5 5 8 8 5 7 7 7 7 7 5 5 6 4 4 3 3 2 2 1 2 4 3 2 3 2 1 4
23 23 23 24 20 20 19 18 18 15 15 12 10 9 6 6 4 3 7 8 7 8 8 8 7 6 4 5 6 5 5 2 3 2 1 1 1 2 3 2 2 2 2
23 22 24 23 20 19 19 19 20 18 16 15 13 10 9 8 5 3 6 7 6 5 6 8 7 6 6 7 5 4 5 4 3 1 2 3 1 2 2 2 2 2 2
23 23 23 22 21 21 21 20 21 19 18 18 15 15 9 9 8 7 6 7 5 3 6 6 7 7 6 6 6 5 3 3 2 3 2 2 1 0 2 3 1 0 2
23 24 23 24 24 23 23 23 23 21 20 19 18 15 14 7 7 7 5 7 8 8 8 9 9 9 7 7 6 4 4 4 4 3 2 2 1 1 1 3 3 2 2
12 22 22 21 24 24 23 24 24 22 21 21 17 16 14 13 9 8 7 6 6 8 10 10 12 10 8 8 7 5 5 5 5 5 4 3 2 1 1 1 3 4 1
13 18 22 22 23 26 23 23 25 26 24 22 18 16 16 14 11 7 9 8 7 8 12 13 12 11 9 8 8 6 5 6 5 4 6 5 2 1 1 1 2 2 4
21 23 24 24 22 23 22 22 22 24 22 21 19 18 15 16 13 12 9 8 9 10 14 14 12 11 11 10 8 7 7 8 7 5 6 6 5 3 2 2 1 2 3
29 28 21 22 21 24 23 24 21 23 22 21 20 18 16 15 15 15 14 13 10 13 14 13 14 13 12 12 11 10 8 8 8 8 7 7 4 5 5 3 3 3 3
10 22 20 20 21 21 23 24 23 23 23 21 20 18 17 16 17 17 13 14 13 12 14 15 15 15 14 12 11 11 8 7 10 8 7 7 7 6 5 5 4 3 2
10 10 23 21 21 21 22 23 23 23 22 21 21 19 19 18 18 16 16 11 14 14 15 15 15 14 13 13 11 10 9 7 7 8 9 8 8 8 7 6 6 5 3
9 9 18 17 21 20 19 21 21 22 22 21 21 21 18 17 17 16 16 17 12 14 13 13 11 11 11 10 11 10 10 8 8 9 9 9 10 12 11 6 6 5 4
9 7 10 17 17 16 16 20 21 21 21 21 22 19 18 17 17 16 15 15 15 13 11 12 12 10 9 11 15 13 10 10 10 9 8 8 12 10 14 12 11 10 6
9 11 11 12 12 18 21 21 22 20 21 21 18 19 18 18 18 16 15 14 16 11 12 11 10 7 9 16 17 16 8 9 10 10 8 7 7 9 7 6 7 7 8
10 10 13 8 9 10 16 20 19 21 20 20 19 18 18 18 17 16 16 13 12 10 10 9 10 8 7 8 11 15 10 7 8 9 8 8 7 5 6 6 5 6 5
6 5 6 6 10 11 15 17 18 19 20 18 20 19 19 18 17 17 15 11 10 10 9 8 8 11 9 14 12 10 8 7 7 6 6 8 6 7 7 6 6 6 5
8 12 8 5 8 9 14 17 18 16 18 19 19 18 17 18 17 16 14 10 12 11 10 11 12 12 10 14 16 10 4 5 3 5 6 7 6 8 13 8 6 6 5
10 10 10 9 11 9 13 16 17 19 17 13 11 14 15 16 16 15 12 12 12 12 13 13 12 17 13 9 13 12 5 5 5 5 4 4 8 6 9 9 6 6 1
9 6 5 6 6 11 15 15 16 13 11 12 12 13 15 13 12 15 11 10 10 9 7 4 1 1 7 9 10 14 13 8 7 5 4 5 9 8 10 10 7 7 5
5 5 5 8 6 5 10 14 11 14 15 16 15 14 13 13 13 12 11 9 9 8 6 5 4 2 3 4 11 13 12 7 4 3 3 4 5 6 4 8 10 9 3
8 6 7 8 7 6 9 13 12 15 17 17 15 13 14 12 10 8 8 9 8 7 8 8 6 4 3 4 3 3 3 3 3 6 4 4 4 5 4 4 4 4 5
8 6 7 6 7 11 12 13 17 19 18 16 13 13 11 11 10 8 5 7 4 2 6 6 6 6 5 4 8 9 5 5 6 5 3 1 2 2 3 3 4 5 5
7 8 7 8 7 11 13 14 14 15 16 15 11 9 10 8 9 9 8 18 10 9 8 1 8 3 5 13 13 10 8 9 10 2 3 3 5 5 6 7 5 5 7
Wind_Direction
192 181 175 167 167 170 169 174 165 162 169 170 169 169 187 214 212 183 193 182 192 177 179 206 195 191 173 169 139 104 49 336 316 42 349 332 287 95 81 95 88 85 101
188 178 183 174 173 174 173 176 175 155 170 172 171 167 176 215 207 139 171 172 177 185 187 180 207 168 138 125 136 112 73 359 342 129 90 2 339 34 103 94 77 52 101
185 182 184 180 174 176 173 175 174 164 168 159 168 185 161 253 181 191 171 206 193 173 167 186 161 175 152 154 154 143 131 112 306 74 134 49 246 344 357 70 108 110 107
185 183 183 182 179 178 174 173 171 166 164 162 171 182 188 193 206 201 199 191 182 184 184 164 159 152 154 146 153 153 133 126 121 330 167 121 151 130 26 333 344 110 137
187 185 185 186 183 174 176 171 173 168 174 179 172 190 186 194 209 184 172 175 182 179 177 160 161 148 139 136 149 152 143 122 131 135 100 71 29 94 125 230 317 295 251
188 186 189 183 185 176 173 171 174 178 174 182 190 191 186 198 201 178 151 156 169 166 175 149 150 143 144 159 172 153 145 157 122 126 82 103 177 194 130 116 277 206 250
188 190 185 188 185 180 175 174 176 181 180 184 190 199 194 199 191 171 166 159 165 159 166 149 155 156 157 168 160 154 167 164 164 153 142 97 353 336 134 122 207 145 281
188 189 189 189 186 184 179 176 179 181 184 186 193 195 199 202 204 183 167 180 177 176 170 165 160 163 161 161 163 156 171 175 182 206 170 154 237 35 124 161 138 360 341
186 190 190 186 185 185 181 180 179 183 185 189 192 196 195 201 207 185 184 179 178 175 178 164 168 170 168 165 161 176 184 185 190 209 212 194 213 110 42 112 144 150 186
199 184 198 187 185 186 182 180 178 183 185 189 191 195 196 197 198 181 195 184 186 158 173 176 171 173 171 168 171 178 189 186 196 201 204 229 204 166 21 0 168 114 147
229 219 198 188 181 182 180 180 179 182 186 189 191 194 195 195 195 203 194 182 185 163 173 174 171 176 175 178 176 186 189 190 195 199 197 207 186 186 191 144 134 168 162
212 206 187 187 175 179 178 181 177 182 187 188 189 195 192 191 193 204 202 200 190 177 177 175 179 183 180 182 181 187 192 200 198 199 185 196 188 210 218 193 207 204 190
188 202 187 179 179 176 179 180 179 184 186 186 189 189 191 193 197 201 197 195 195 180 181 181 185 186 185 182 189 193 191 194 204 196 193 199 192 206 205 206 208 213 210
194 161 185 179 178 179 179 182 186 183 183 184 188 190 191 194 199 197 199 188 192 187 184 189 190 189 181 183 179 183 191 199 202 204 196 193 205 207 202 201 204 214 218
190 152 168 168 176 180 181 184 186 186 182 185 189 191 191 194 196 197 194 200 193 194 184 182 184 181 180 183 173 188 194 201 209 206 207 206 209 205 197 191 207 181 179
152 189 153 166 172 175 185 182 185 188 186 187 193 188 189 188 193 194 195 194 200 197 177 178 175 174 188 170 178 184 192 199 206 216 213 213 214 218 199 190 175 176 173
208 186 188 176 168 180 187 184 186 183 186 193 189 190 189 189 191 189 191 190 194 185 176 171 163 167 185 186 189 191 198 203 212 217 217 215 214 180 186 229 212 189 198
215 204 183 183 182 173 184 187 178 183 187 191 191 189 190 189 185 187 188 182 183 167 163 157 169 165 181 207 202 201 201 198 210 212 204 209 219 194 181 183 215 228 216
206 173 198 189 179 167 173 176 178 182 185 186 189 188 187 184 183 185 178 164 155 153 158 161 157 177 182 192 195 187 199 204 212 211 212 222 218 199 194 189 214 240 251
187 174 236 178 180 195 166 167 179 178 187 192 189 181 180 178 176 171 162 143 150 152 147 167 176 178 192 193 196 183 174 178 224 247 252 229 219 196 196 193 193 236 253
204 194 197 187 188 187 165 171 178 184 189 185 159 163 167 163 159 149 144 146 156 159 172 176 183 176 182 177 178 173 165 197 210 218 235 224 218 208 188 191 194 206 163
33 31 152 175 197 167 166 174 180 176 137 133 138 139 140 142 140 133 136 158 155 151 148 155 112 192 142 147 177 182 201 186 206 216 219 221 220 202 199 186 202 171 168
48 42 94 78 36 132 164 163 159 134 129 124 130 131 126 129 131 127 130 126 119 120 109 111 127 190 164 160 179 189 200 186 180 160 127 139 156 174 177 190 191 178 193
35 69 83 98 97 82 103 119 120 119 118 119 122 116 113 113 111 115 115 114 119 128 146 154 165 172 202 146 130 115 118 130 104 112 133 178 171 142 126 136 194 193 204
25 44 83 72 83 102 105 113 121 119 116 113 112 113 110 111 101 74 79 116 67 117 176 183 142 141 171 202 153 146 162 172 172 152 109 134 79 155 197 214 200 214 217
49 46 42 77 90 100 105 101 95 114 119 119 124 129 130 122 117 112 86 41 54 65 47 125 120 96 141 139 127 139 143 163 157 119 167 190 206 208 204 204 205 206 213